CDT,Max TemperatureF,Mean TemperatureF,Min TemperatureF,Max Dew PointF,MeanDew PointF,Min DewpointF,Max Humidity, Mean Humidity, Min Humidity, Max Sea Level PressureIn, Mean Sea Level PressureIn, Min Sea Level PressureIn, Max VisibilityMiles, Mean VisibilityMiles, Min VisibilityMiles, Max Wind SpeedMPH, Mean Wind SpeedMPH, Max Gust SpeedMPH,PrecipitationIn, CloudCover, Events, WindDirDegrees
2013-8-1,80,68,55,66,59,54,100,74,44,30.07,30.01,29.91,10,9,3,12,2,18,0.00,1,,300
2013-8-2,80,71,62,66,64,61,100,79,54,30.00,29.92,29.87,10,10,7,12,3,,0.01,2,Rain,318
2013-8-3,77,66,55,63,56,50,100,74,41,30.18,30.10,30.00,10,9,0,10,2,14,0.00,1,Fog,348
2013-8-4,77,64,50,61,55,48,100,73,41,30.23,30.16,30.09,10,9,0,7,1,,0.00,1,,135
2013-8-5,60,58,55,57,56,54,100,93,88,30.09,30.04,29.98,10,10,4,10,1,,0.00,1,,128
2013-8-6,,,,,,,,,,,,,,,,,,,0.00,,,-1
2013-8-7,,,,,,,,,,,,,,,,,,,0.00,,,-1
2013-8-8,,,,,,,,,,,,,,,,,,,0.00,,,-1
2013-8-9,,,,,,,,,,,,,,,,,,,0.00,,,-1
2013-8-10,,,,,,,,,,,,,,,,,,,0.00,,,-1
2013-8-11,,,,,,,,,,,,,,,,,,,0.00,,,-1
2013-8-12,,,,,,,,,,,,,,,,,,,0.00,,,-1
2013-8-13,,,,,,,,,,,,,,,,,,,0.00,,,-1
2013-8-14,73,63,53,59,53,48,94,74,41,30.16,30.15,30.14,10,10,10,6,2,,0.00,0,,255
2013-8-15,75,64,53,59,54,50,100,76,41,30.18,30.15,30.11,10,10,9,8,1,14,0.00,1,,203
2013-8-16,78,63,48,61,54,48,100,76,36,30.21,30.18,30.15,10,10,8,7,1,,0.00,1,,61
2013-8-17,80,65,50,61,56,48,100,75,42,30.24,30.20,30.16,10,9,2,12,2,16,0.00,1,,121
2013-8-18,80,65,50,64,56,50,100,76,44,30.22,30.16,30.10,10,10,6,10,2,16,0.00,1,,171
2013-8-19,82,68,53,68,61,54,100,81,45,30.12,30.07,30.03,10,9,4,12,2,17,0.00,0,,205
2013-8-20,86,74,62,68,66,63,100,76,51,30.07,30.03,29.99,10,9,5,14,6,20,0.00,2,,167
2013-8-21,87,76,66,72,68,64,94,76,55,30.04,30.01,29.96,10,10,0,17,8,24,0.04,1,,182
2013-8-22,77,70,62,70,68,63,100,87,73,30.12,30.07,30.00,10,9,0,16,5,24,0.25,2,Fog-Rain,184
2013-8-23,80,70,59,68,63,59,100,80,54,30.18,30.14,30.11,10,6,0,14,3,21,0.00,3,Fog,122
2013-8-24,86,74,62,73,65,55,89,75,66,30.23,30.17,30.13,10,10,9,15,8,18,0.00,2,,140
2013-8-25,87,78,69,72,69,64,94,74,46,30.21,30.16,30.10,10,10,9,15,8,20,0.00,0,,179
2013-8-26,91,78,66,77,71,64,94,77,55,30.14,30.07,29.97,10,10,9,13,5,17,0.00,0,,187
2013-8-27,93,81,69,73,71,68,94,71,49,29.99,29.92,29.85,10,10,10,16,6,22,0.00,0,,210
2013-8-28,87,79,71,79,74,70,94,83,74,30.03,29.97,29.89,10,10,7,8,5,,0.00,2,,349
2013-8-29,87,79,71,75,73,68,100,83,66,30.07,30.02,29.96,10,9,5,13,5,14,0.00,3,,139
2013-8-30,95,83,71,77,73,68,100,76,47,29.96,29.86,29.78,10,8,0,17,5,25,0.00,2,Fog,211
2013-8-31,84,76,66,73,69,66,100,83,62,29.87,29.83,29.78,10,10,2,18,6,17,0.00,3,,71